This demonstration page uses our WeatherBlox Daily Observations layout. Learn more.

Left ArrowRight Arrow

39.12711, -84.51439

Hourly Observations for June 18, 2016

Temp ( °F °C ) Dew Point ( °F °C ) Humidity (%) Winds ( mph kmh ) Pressure ( in mb ) Visibility ( mi km ) Precip ( " mm )
12:53 am 00:53 Mostly Clear 66 18.9 64 17.8 93 93 NNE 3 6 30.05 1018 10 16 N/A
1:53 am 01:53 Clear 65 18.3 63 17.2 93 93 N N/A 30.05 1018 10 16 N/A
2:53 am 02:53 Clear 62 16.7 62 16.7 100 100 ENE 3 6 30.06 1018 7 11 N/A
3:53 am 03:53 Clear 62 16.7 62 16.7 100 100 ENE 3 6 30.07 1018 10 16 N/A
4:53 am 04:53 Clear 61 16.1 61 16.1 100 100 NNE 3 6 30.09 1019 7 11 N/A
5:53 am 05:53 Clear 59 15 59 15 100 100 ENE 3 6 30.11 1020 7 11 N/A
6:53 am 06:53 Sunny 62 16.7 61 16.1 96 96 NE 5 7 30.13 1020 9 14 N/A
7:53 am 07:53 Sunny 67 19.4 62 16.7 84 84 NNE 5 7 30.14 1021 10 16 N/A
8:53 am 08:53 Sunny 73 22.8 62 16.7 69 69 VRB 6 9 30.18 1022 10 16 N/A
9:53 am 09:53 Sunny 75 23.9 59 15 58 58 E 9 15 30.18 1022 10 16 N/A
10:53 am 10:53 Sunny 77 25 58 14.4 52 52 E 7 11 30.21 1023 10 16 N/A
11:53 am 11:53 Sunny 80 26.7 60 15.6 51 51 NE 8 13 30.21 1023 10 16 N/A
12:53 pm 12:53 Sunny 82 27.8 58 14.4 44 44 E 12 19 30.20 1023 10 16 N/A
1:53 pm 13:53 Sunny 84 28.9 55 12.8 37 37 VRB 6 9 30.19 1022 10 16 N/A
2:53 pm 14:53 Sunny 84 28.9 53 11.7 34 34 ESE 12 19 30.19 1022 10 16 N/A
3:53 pm 15:53 Sunny 84 28.9 54 12.2 36 36 VRB 7 11 30.19 1023 10 16 N/A
4:53 pm 16:53 Sunny 84 28.9 53 11.7 34 34 ESE 6 9 30.19 1023 10 16 N/A
5:53 pm 17:53 Sunny 84 28.9 53 11.7 34 34 ESE 8 13 30.19 1022 10 16 N/A
6:53 pm 18:53 Sunny 83 28.3 54 12.2 37 37 SE 6 9 30.19 1022 10 16 N/A
7:53 pm 19:53 Sunny 81 27.2 56 13.3 42 42 SE 7 11 30.19 1023 10 16 N/A
8:53 pm 20:53 Sunny 74 23.3 62 16.7 67 67 SSE 5 7 30.21 1023 10 16 N/A
9:53 pm 21:53 Clear 69 20.6 60 15.6 73 73 N N/A 30.22 1023 10 16 N/A
10:53 pm 22:53 Clear 66 18.9 60 15.6 81 81 N N/A 30.24 1024 10 16 N/A
11:53 pm 23:53 Clear 64 17.8 61 16.1 90 90 N N/A 30.24 1024 10 16 N/A

Powered by AerisWeather